Weather History for New Philadelphia, OH

Change the Weather History Date:

Monday, March 11, 2013

  Actual Average Record
Temperature  
Mean Temperature 53 °F 38 °F  
Max Temperature 62 °F 49 °F 76 °F (1973)
Min Temperature 44 °F 27 °F 1 °F (1984)
Degree Days  
Heating Degree Days 12 27  
Month to date heating degree days 310 316  
Since 1 July heating degree days 4440 4523  
Cooling Degree Days 0 0  
Month to date cooling degree days 0 0  
Year to date cooling degree days 0 0  
Growing Degree Days 4 (Base 50)    
Moisture  
Dew Point 38 °F    
Average Humidity 59    
Maximum Humidity 86    
Minimum Humidity 32    
Precipitation  
Precipitation 0.43 in 0.10 in 0.68 in (1983)
Month to date precipitation 0.63 0.98  
Year to date precipitation 3.79 5.94  
Sea Level Pressure  
Sea Level Pressure 29.79 in    
Wind  
Wind Speed 9 mph (South)    
Max Wind Speed 16 mph    
Max Gust Speed 28 mph    
Visibility 9 miles    
Events Rain    
T = Trace of Precipitation, MM = Missing Value Source: NWS Daily Summary

Daily Weather History Graph

Daily Weather History Graph

Search for Another Location

Airport:

Trip Planner

Search our weather history database for the weather conditions in past years. The results will help you decide how hot, cold, wet, or windy it might be!

Date:

Astronomy

Mar. 11, 2013 Rise Set
Actual Time 7:43 AM EDT 7:28 PM EDT
Civil Twilight 7:16 AM EDT 7:55 PM EDT
Nautical Twilight 6:44 AM EDT 8:27 PM EDT
Astronomical Twilight 6:12 AM EDT 8:59 PM EDT
Moon 7:16 AM EDT (3/11) 7:39 PM EDT (3/11)
Length of Visible Light 12h 39m
Length of Day
11h 45m
Waning Crescent, 0% of the Moon is Illuminated
Mar 11
Waning Crescent
Mar 11
New
Mar 19
First Quarter
Mar 27
Full
Apr 3
Last Quarter

Hourly Weather History & Observations

Time (EDT) Temp. Windchill Dew Point Humidity Pressure Visibility Wind Dir Wind Speed Gust Speed Precip Events Conditions
12:53 AM 62.1 °F - 32.0 °F 32% 29.92 in 10.0 mi SSE 9.2 mph - N/A   Clear
1:53 AM 61.0 °F - 32.0 °F 34% 29.91 in 10.0 mi SSE 8.1 mph - N/A   Clear
2:53 AM 60.1 °F - 32.0 °F 35% 29.90 in 10.0 mi South 9.2 mph - N/A   Clear
3:53 AM 59.0 °F - 30.9 °F 35% 29.88 in 10.0 mi South 9.2 mph - N/A   Partly Cloudy
4:53 AM 59.0 °F - 30.9 °F 35% 29.86 in 10.0 mi SSE 8.1 mph - N/A   Partly Cloudy
5:53 AM 57.9 °F - 30.9 °F 36% 29.88 in 10.0 mi South 4.6 mph - N/A   Partly Cloudy
6:53 AM 55.0 °F - 32.0 °F 42% 29.90 in 10.0 mi SE 4.6 mph - N/A   Scattered Clouds
7:53 AM 54.0 °F - 30.9 °F 41% 29.89 in 10.0 mi SSE 3.5 mph - N/A   Scattered Clouds
8:53 AM 53.1 °F - 33.1 °F 47% 29.89 in 10.0 mi SE 5.8 mph - N/A   Partly Cloudy
9:53 AM 55.9 °F - 32.0 °F 40% 29.88 in 10.0 mi SSE 5.8 mph - N/A   Partly Cloudy
10:53 AM 57.9 °F - 32.0 °F 37% 29.85 in 10.0 mi SSE 10.4 mph 17.3 mph N/A   Mostly Cloudy
11:53 AM 59.0 °F - 33.1 °F 38% 29.82 in 10.0 mi SSE 9.2 mph - N/A   Overcast
12:53 PM 60.1 °F - 36.0 °F 41% 29.81 in 10.0 mi SSE 11.5 mph 21.9 mph 0.00 in Rain Light Rain
1:53 PM 60.1 °F - 37.9 °F 44% 29.77 in 10.0 mi South 13.8 mph 18.4 mph 0.00 in   Overcast
2:53 PM 55.0 °F - 45.0 °F 69% 29.73 in 10.0 mi SSE 10.4 mph 21.9 mph 0.03 in Rain Light Rain
3:53 PM 54.0 °F - 46.0 °F 75% 29.69 in 10.0 mi SSE 5.8 mph - 0.03 in Rain Light Rain
4:53 PM 55.9 °F - 46.0 °F 69% 29.65 in 10.0 mi SE 8.1 mph - 0.01 in   Overcast
5:53 PM 57.9 °F - 45.0 °F 62% 29.65 in 10.0 mi South 9.2 mph 17.3 mph 0.00 in   Overcast
7:53 PM 54.0 °F - 48.0 °F 80% 29.65 in 8.0 mi South 12.7 mph 19.6 mph 0.05 in Rain Light Rain
8:20 PM 53.6 °F - 48.2 °F 82% 29.68 in 5.0 mi West 12.7 mph 20.7 mph 0.05 in Rain Rain
8:29 PM 51.8 °F - 48.2 °F 88% 29.71 in 2.5 mi West 15.0 mph 20.7 mph 0.14 in Rain Rain
8:39 PM 50.0 °F - 46.4 °F 87% 29.72 in 3.0 mi WNW 13.8 mph 25.3 mph 0.18 in Rain Rain
8:53 PM 48.9 °F - 44.1 °F 83% 29.73 in 7.0 mi West 10.4 mph 24.2 mph 0.20 in Rain Light Rain
9:04 PM 48.2 °F - 44.6 °F 87% 29.73 in 8.0 mi WSW 11.5 mph 24.2 mph 0.01 in Rain Light Rain
9:53 PM 46.9 °F - 43.0 °F 86% 29.75 in 9.0 mi WSW 9.2 mph - 0.05 in Rain Light Rain
10:53 PM 46.9 °F - 42.1 °F 83% 29.76 in 10.0 mi WSW 4.6 mph - 0.01 in   Overcast
11:53 PM 46.0 °F 40.2 °F 35.1 °F 66% 29.79 in 10.0 mi West 12.7 mph 23.0 mph 0.00 in Rain Light Rain